ONEWEB-0041, 45148

Orbit data source: Space-Track

ONEWEB-0041, 45148 is a payload satellite owned by One Web (UK) in LEO that was launched on Thu, 06 Feb 2020 UTC via a SOYUZ-2-1B launch vehicle from the Tyuratam Missile And Space Complex (TTMTR). Payload-class satellites include a variety of spacecraft equipped with specific instruments for various scientific and technological missions. These include communications satellites like Starlink; space stations such as the ISS; scientific satellites like the Hubble; Earth observation satellites from companies like Planet Labs, Umbra, and HawkEye 360; GPS; miniature CubeSats for education and research; and military/defense satellites.

Loading next visibility...
Identifier
45148, 2020-008T
Orbit
LEO
Country
Flag of UKUK
Related business
Manufacturer
One Web
Mission
Non-operational Commercial Communications
Bus & Motor
ARROW, Unknown motor
Mass
148 kg wet, ~140 kg dry
Launch date (UTC)
2020-02-06 (6 years ago)
Launch vehicle
SOYUZ-2-1B
Launch site
Tyuratam Missile And Space Complex (TTMTR)
Object type
Payload
Rocket body
Debris
Shape & HBR
Trap Box + 2 Pan, 6.7 m
Radar Cross Section
3.464 m², Large (>1 m²)

Expand to show TLE details & history
Last TLE update: 22 hours ago

TLE from 22 hours ago
0 ONEWEB-0041
1 45148U 20008T   25286.79216151  .00000111  00000-0  15587-3 0  9999
2 45148  87.9308  55.2266 0016561 215.4486 144.5564 13.48569810284844
Epoch: 2025-10-13T19:00Z
TLE epoch observation values (Epoch: 2025-10-13T19:00:42.754Z)
Latitude
Longitude
107.4586°
Altitude
1,090.537 km
Speed
7.302 km/s
True Right ascension
03h 40m 54s
True Declination
0° 00' 00"
Sunlit
Object was in full shadow at epoch
Visualization orbit readout
Latitude
Unknown
Longitude
Unknown
Altitude
Unknown
Speed
Unknown
Apparent Right ascension
Unknown
Apparent Declination
Unknown
Sunlit
N/A
Visualization observer readout
Local Sidereal Time
11:34:04
Azimuth
Unknown
Elevation
Unknown
Doppler factor
Unknown
Orbital elements
Apogee altitude
1,086.931 km
Perigee altitude
1,062.246 km
Semi-major axis
7,452.726 km
Eccentricity
0.00166
Inclination
87.9308°
RAAN
55.2266°
Arg. of periapsis
215.4486°
True anomaly
144.66627°
Mean anomaly
144.5564°
Eccentric anomaly
144.61135°
Mean motion
3.37342 °/min
Orbital period
106.72 mins
BSTAR
0.00015587
Loading maneuver chart data...
Computing Atmospheric mass density...
Loading historical data...
Loading historical data...
Loading historical data...
Loading historical data...
Loading historical data...
Loading historical data...
Loading historical data...

Documentation

Showing up to 5 results
|